Weather History for Westfield, MA

Change the Weather History Date:

Wednesday, April 2, 2014

  Actual Average Record
Temperature  
Mean Temperature 45 °F -  
Max Temperature 63 °F 49 °F 64 °F (2009)
Min Temperature 28 °F 30 °F 28 °F (2003)
Degree Days  
Heating Degree Days 20    
Moisture  
Dew Point 32 °F    
Average Humidity 66    
Maximum Humidity 92    
Minimum Humidity 28    
Precipitation  
Precipitation 0.00 in - - ()
Sea Level Pressure  
Sea Level Pressure 30.08 in    
Wind  
Wind Speed 4 mph (SSW)    
Max Wind Speed 10 mph    
Max Gust Speed 16 mph    
Visibility 10 miles    
Events      
Averages and records for this station are not official NWS values.
T = Trace of Precipitation, MM = Missing Value Source: NWS Daily Summary

Daily Weather History Graph

Daily Weather History Graph

Search for Another Location

Airport:

Trip Planner

Search our weather history database for the weather conditions in past years. The results will help you decide how hot, cold, wet, or windy it might be!

Date:

Astronomy

Apr. 02, 2014 Rise Set
Actual Time 6:31 AM EDT 7:17 PM EDT
Civil Twilight 6:03 AM EDT 7:46 PM EDT
Nautical Twilight 5:30 AM EDT 8:19 PM EDT
Astronomical Twilight 4:55 AM EDT 8:54 PM EDT
Moon 8:11 AM EDT (4/2) 10:41 PM EDT (4/2)
Length of Visible Light 13h 42m
Length of Day
12h 45m
Waxing Crescent, 10% of the Moon is Illuminated
Apr 2
Waxing Crescent
Apr 7
First Quarter
Apr 15
Full
Apr 22
Last Quarter
Apr 29
New

Hourly Weather History & Observations

Time (EDT) Temp. Windchill Dew Point Humidity Pressure Visibility Wind Dir Wind Speed Gust Speed Precip Events Conditions
12:53 AM 37.9 °F 33.5 °F 30.0 °F 73% 30.11 in 10.0 mi South 5.8 mph - N/A   Clear
1:53 AM 37.0 °F 32.4 °F 30.0 °F 76% 30.10 in 10.0 mi SSE 5.8 mph - N/A   Clear
2:53 AM 36.0 °F - 30.0 °F 79% 30.09 in 10.0 mi Calm Calm - N/A   Clear
3:53 AM 34.0 °F - 30.0 °F 85% 30.09 in 10.0 mi Calm Calm - N/A   Clear
4:53 AM 32.0 °F 27.5 °F 28.0 °F 85% 30.11 in 10.0 mi North 4.6 mph - N/A   Clear
5:53 AM 30.0 °F - 27.0 °F 88% 30.11 in 10.0 mi Calm Calm - N/A   Clear
6:53 AM 28.9 °F - 27.0 °F 92% 30.13 in 10.0 mi Calm Calm - N/A   Clear
8:53 AM 39.0 °F 35.7 °F 33.1 °F 79% 30.12 in 10.0 mi South 4.6 mph - N/A   Clear
9:53 AM 41.0 °F 38.0 °F 33.1 °F 73% 30.13 in 10.0 mi SSW 4.6 mph - N/A   Clear
10:53 AM 44.1 °F 39.5 °F 32.0 °F 63% 30.12 in 10.0 mi SSW 8.1 mph - N/A   Clear
11:53 AM 48.0 °F - 33.1 °F 56% 30.11 in 10.0 mi SSW 9.2 mph - N/A   Clear
12:53 PM 51.1 °F - 34.0 °F 52% 30.09 in 10.0 mi SSE 8.1 mph - N/A   Clear
1:53 PM 55.0 °F - 35.1 °F 47% 30.06 in 10.0 mi Variable 5.8 mph - N/A   Clear
2:53 PM 59.0 °F - 36.0 °F 42% 30.02 in 10.0 mi South 10.4 mph 16.1 mph N/A   Partly Cloudy
3:53 PM 60.1 °F - 36.0 °F 41% 30.01 in 10.0 mi South 6.9 mph - N/A   Clear
4:53 PM 61.0 °F - 34.0 °F 36% 30.01 in 10.0 mi Calm Calm - N/A   Clear
5:53 PM 62.1 °F - 28.0 °F 28% 30.01 in 10.0 mi West 4.6 mph - N/A   Clear
6:53 PM 59.0 °F - 30.0 °F 33% 30.03 in 10.0 mi West 4.6 mph - N/A   Clear
7:53 PM 48.9 °F - 37.0 °F 64% 30.04 in 10.0 mi Calm Calm - N/A   Clear
8:53 PM 44.1 °F - 34.0 °F 68% 30.07 in 10.0 mi Calm Calm - N/A   Clear
9:53 PM 41.0 °F - 36.0 °F 82% 30.08 in 10.0 mi Calm Calm - N/A   Clear
10:53 PM 37.0 °F - 33.1 °F 86% 30.08 in 10.0 mi Calm Calm - N/A   Clear
11:53 PM 37.0 °F 33.3 °F 32.0 °F 82% 30.09 in 10.0 mi NW 4.6 mph - N/A   Clear